{"data":{"norad_id":64437,"intl_designator":"2025-129AB","name":"STARLINK-34507","alt_names":[],"object_type":"PAYLOAD","status":"ACTIVE","operator":null,"country":"US","launch_date":"2025-06-17","launch_site_code":"AFWTR","launch_vehicle":null,"mission":null,"orbit_class":"UNKNOWN","rcs_meters":null,"size_class":null,"mass_kg":null,"dimensions":null,"purposes":["comms"],"wikipedia_slug":null,"has_3d_model":false,"image_url":null,"decayed_at":null,"tle_current":{"epoch":"2026-05-25T05:14:39.079968Z","epoch_age_seconds":56223,"freshness":"FRESH","line1":"1 64437U 25129AB  26145.21850787  .00008883  00000+0  75120-3 0  9993","line2":"2 64437  70.0006 241.3710 0003411 272.1531  87.9237 14.98335377 52752","mean_motion":14.98335377,"eccentricity":0.0003411,"inclination_deg":70.0006,"raan_deg":241.371,"arg_perigee_deg":272.1531,"mean_anomaly_deg":87.9237,"bstar":0.0007512,"rev_number":5275,"period_min":96.106654231391,"perigee_km":569.66855794186,"apogee_km":574.40996818852,"semimajor_km":6950.1762630652,"source":"CELESTRAK","updated_at":"2026-05-25T13:38:20.445623Z"}}}